User: anonymous   Login
Location: Girdwood
(60.9430°N, 149.1660°W)
Time: 01:52:48
(UTC-09:00)
Language:

Iridium 86 - Orbit

View from above orbital plane
View from above orbital plane
View from above satellite
View from above satellite

Ground track
Ground track

The orbit data is extracted from the following two-line orbital elements,

1 25528U 98066B   17016.50618569  .00000029  00000-0  31197-5 0  9993
2 25528  86.3934  53.2249 0002326  96.8078 263.3383 14.34218924957628
Epoch (UTC): 16 January 2017 12:08:54
Eccentricity: 0.0002326
inclination: 86.3934°
perigee height: 776 km
apogee height: 779 km
right ascension of ascending node: 53.2249°
argument of perigee: 96.8078°
revolutions per day: 14.34218924
mean anomaly at epoch: 263.3383°
orbit number at epoch: 95762

The dashed part of the orbit path shows where the satellite is in the earth's shadow,  

DLR